Powrót do katalogu

COSMOS 2239

AktywnyMilitariaPO
NORAD 22590·PAYLOAD·🇷🇺 Russia

Wystrzelony Apr 1, 1993 z Plesetsk Cosmodrome

Loading…

Następne Przeloty (najbliższe 24 godziny)

TLE

ŚwieżeSource: Space-Track

Epoka: Sep 14, 2026, 05:52 UTC

1 22590U 93020A   26257.24498832  .00000036  00000-0  21489-4 0  9991
2 22590  82.9272  74.6012 0024003  47.1777 126.3148 13.75640851679021

Śledź COSMOS 2239 w czasie rzeczywistym z AllMySat

Download on the App Store